Stündliche Wetter Kyzylyarovo

Heute, 8 Mai, Samstag

Zeit Temperatur Niederschläge Wind Luftdruck Luftfeuchtigkeit
00:00 +13°C° 0 mm 1 m/S 754 mmHg 66%
01:00 +12°C° 0 mm 1 m/S 754 mmHg 67%
02:00 +13°C° 0 mm 1 m/S 754 mmHg 67%
03:00 +13°C° 0 mm 1 m/S 754 mmHg 66%
04:00 +13°C° 0 mm 1 m/S 754 mmHg 65%
05:00 +14°C° 0 mm 1 m/S 754 mmHg 64%
06:00 +15°C° 0 mm 1 m/S 754 mmHg 63%
07:00 +15°C° 0 mm 1 m/S 754 mmHg 62%
08:00 +18°C° 0 mm 1 m/S 754 mmHg 57%
09:00 +19°C° 0 mm 1 m/S 754 mmHg 51%
10:00 +21°C° 0 mm 1 m/S 754 mmHg 45%
11:00 +22°C° 0 mm 1 m/S 753 mmHg 42%
12:00 +22°C° 0 mm 1 m/S 753 mmHg 39%
13:00 +23°C° 0 mm 2 m/S 753 mmHg 36%
14:00 +21°C° 0 mm 2 m/S 753 mmHg 37%
15:00 +21°C° 0 mm 2 m/S 753 mmHg 39%
16:00 +21°C° 0 mm 2 m/S 753 mmHg 40%
17:00 +19°C° 0 mm 2 m/S 753 mmHg 50%
18:00 +17°C° 0 mm 2 m/S 753 mmHg 59%
19:00 +16°C° 0 mm 2 m/S 753 mmHg 69%
20:00 +15°C° 0 mm 2 m/S 753 mmHg 73%
21:00 +13°C° 0 mm 1 m/S 753 mmHg 78%
22:00 +12°C° 0 mm 1 m/S 753 mmHg 83%
23:00 +12°C° 0 mm 1 m/S 753 mmHg 83%

Morgen, 9 Mai, Sonntag

Zeit Temperatur Niederschläge Wind Luftdruck Luftfeuchtigkeit
00:00 +12°C° 0 mm 1 m/S 753 mmHg 83%
01:00 +11°C° 0 mm 1 m/S 753 mmHg 84%
02:00 +10°C° 0 mm 0 m/S 753 mmHg 84%
03:00 +10°C° 0 mm 0 m/S 753 mmHg 84%
04:00 +10°C° 0 mm 0 m/S 753 mmHg 84%
05:00 +11°C° 0 mm 0 m/S 753 mmHg 80%
06:00 +12°C° 0 mm 0 m/S 753 mmHg 75%
07:00 +14°C° 0 mm 1 m/S 753 mmHg 70%
08:00 +16°C° 0 mm 1 m/S 753 mmHg 64%
09:00 +19°C° 0 mm 1 m/S 753 mmHg 57%
10:00 +21°C° 0 mm 1 m/S 753 mmHg 51%
11:00 +21°C° 0 mm 2 m/S 753 mmHg 47%
12:00 +23°C° 0 mm 2 m/S 753 mmHg 43%
13:00 +23°C° 0 mm 2 m/S 753 mmHg 39%
14:00 +23°C° 0 mm 2 m/S 753 mmHg 39%
15:00 +23°C° 0 mm 2 m/S 753 mmHg 39%
16:00 +23°C° 0 mm 2 m/S 753 mmHg 39%
17:00 +22°C° 0 mm 1 m/S 753 mmHg 44%
18:00 +21°C° 0 mm 1 m/S 753 mmHg 49%
19:00 +20°C° 0 mm 1 m/S 753 mmHg 55%
20:00 +19°C° 0 mm 1 m/S 753 mmHg 57%
21:00 +16°C° 0 mm 1 m/S 754 mmHg 59%
22:00 +15°C° 0 mm 1 m/S 754 mmHg 62%
23:00 +14°C° 0 mm 1 m/S 754 mmHg 64%

übermorgen, 10 Mai, Montag

Zeit Temperatur Niederschläge Wind Luftdruck Luftfeuchtigkeit
00:00 +13°C° 0 mm 1 m/S 754 mmHg 65%
01:00 +13°C° 0 mm 1 m/S 754 mmHg 67%
02:00 +12°C° 0 mm 1 m/S 755 mmHg 69%
03:00 +12°C° 0 mm 1 m/S 755 mmHg 70%
04:00 +12°C° 0 mm 1 m/S 755 mmHg 71%
05:00 +13°C° 0 mm 1 m/S 755 mmHg 66%
06:00 +15°C° 0 mm 1 m/S 756 mmHg 62%
07:00 +16°C° 0 mm 1 m/S 756 mmHg 57%
08:00 +19°C° 0 mm 1 m/S 756 mmHg 51%
09:00 +20°C° 0 mm 2 m/S 756 mmHg 45%
10:00 +23°C° 0 mm 2 m/S 756 mmHg 39%
11:00 +24°C° 0 mm 1 m/S 756 mmHg 36%
12:00 +25°C° 0 mm 1 m/S 756 mmHg 33%
13:00 +23°C° 0 mm 0 m/S 756 mmHg 30%
14:00 +25°C° 0 mm 1 m/S 756 mmHg 31%
15:00 +25°C° 0 mm 1 m/S 756 mmHg 31%
16:00 +25°C° 0 mm 2 m/S 756 mmHg 31%
17:00 +24°C° 0 mm 2 m/S 756 mmHg 38%
18:00 +21°C° 0 mm 2 m/S 756 mmHg 45%
19:00 +20°C° 0 mm 2 m/S 757 mmHg 52%
20:00 +19°C° 0 mm 2 m/S 757 mmHg 53%
21:00 +19°C° 0 mm 1 m/S 757 mmHg 54%
22:00 +18°C° 0 mm 1 m/S 757 mmHg 54%
23:00 +16°C° 0 mm 1 m/S 758 mmHg 57%

11 Mai, Dienstag

Zeit Temperatur Niederschläge Wind Luftdruck Luftfeuchtigkeit
00:00 +15°C° 0 mm 1 m/S 758 mmHg 60%
01:00 +15°C° 0 mm 1 m/S 758 mmHg 63%
02:00 +14°C° 0 mm 1 m/S 758 mmHg 64%
03:00 +13°C° 0 mm 0 m/S 758 mmHg 65%
04:00 +12°C° 0 mm 0 m/S 759 mmHg 66%
05:00 +13°C° 0 mm 0 m/S 759 mmHg 64%
06:00 +14°C° 0 mm 0 m/S 759 mmHg 62%
07:00 +16°C° 0 mm 0 m/S 760 mmHg 59%
08:00 +19°C° 0 mm 1 m/S 760 mmHg 55%
09:00 +21°C° 0 mm 1 m/S 760 mmHg 51%
10:00 +21°C° 0 mm 2 m/S 760 mmHg 47%
11:00 +23°C° 0 mm 2 m/S 760 mmHg 45%
12:00 +24°C° 0 mm 2 m/S 760 mmHg 44%
13:00 +25°C° 0 mm 3 m/S 760 mmHg 42%
14:00 +25°C° 0 mm 3 m/S 760 mmHg 43%
15:00 +25°C° 0 mm 3 m/S 760 mmHg 43%
16:00 +25°C° 0 mm 4 m/S 760 mmHg 44%
17:00 +23°C° 0 mm 4 m/S 760 mmHg 51%
18:00 +21°C° 0 mm 3 m/S 761 mmHg 59%
19:00 +20°C° 0 mm 3 m/S 761 mmHg 66%
20:00 +18°C° 0 mm 3 m/S 761 mmHg 69%
21:00 +16°C° 0 mm 2 m/S 761 mmHg 72%
22:00 +15°C° 0 mm 2 m/S 762 mmHg 75%
23:00 +14°C° 0 mm 2 m/S 762 mmHg 76%

12 Mai, Mittwoch

Zeit Temperatur Niederschläge Wind Luftdruck Luftfeuchtigkeit
00:00 +13°C° 0 mm 2 m/S 762 mmHg 77%
01:00 +13°C° 0 mm 2 m/S 762 mmHg 79%
02:00 +12°C° 0 mm 2 m/S 762 mmHg 79%
03:00 +12°C° 0 mm 2 m/S 762 mmHg 79%
04:00 +10°C° 0 mm 2 m/S 762 mmHg 79%
05:00 +12°C° 0 mm 2 m/S 762 mmHg 74%
06:00 +14°C° 0 mm 2 m/S 762 mmHg 69%
07:00 +15°C° 0 mm 2 m/S 762 mmHg 64%
08:00 +17°C° 0 mm 2 m/S 762 mmHg 57%
09:00 +19°C° 0 mm 2 m/S 762 mmHg 51%
10:00 +21°C° 0 mm 3 m/S 762 mmHg 45%
11:00 +22°C° 0 mm 3 m/S 762 mmHg 40%
12:00 +24°C° 0 mm 3 m/S 762 mmHg 35%
13:00 +25°C° 0 mm 3 m/S 762 mmHg 30%
14:00 +25°C° 0 mm 3 m/S 761 mmHg 30%
15:00 +25°C° 0 mm 4 m/S 761 mmHg 31%
16:00 +25°C° 0 mm 4 m/S 761 mmHg 32%
17:00 +22°C° 0 mm 4 m/S 761 mmHg 39%
18:00 +21°C° 0 mm 3 m/S 761 mmHg 47%
19:00 +19°C° 0 mm 3 m/S 761 mmHg 55%
20:00 +18°C° 0 mm 3 m/S 761 mmHg 58%
21:00 +17°C° 0 mm 3 m/S 761 mmHg 61%
22:00 +14°C° 0 mm 3 m/S 761 mmHg 65%
23:00 +15°C° 0 mm 2 m/S 761 mmHg 66%

13 Mai, Donnerstag

Zeit Temperatur Niederschläge Wind Luftdruck Luftfeuchtigkeit
00:00 +14°C° 0 mm 2 m/S 761 mmHg 68%
01:00 +14°C° 0 mm 2 m/S 761 mmHg 70%
02:00 +14°C° 0 mm 2 m/S 761 mmHg 71%
03:00 +13°C° 0 mm 2 m/S 761 mmHg 72%
04:00 +13°C° 0 mm 2 m/S 762 mmHg 73%
05:00 +15°C° 0 mm 2 m/S 762 mmHg 69%
06:00 +16°C° 0 mm 1 m/S 762 mmHg 65%
07:00 +19°C° 0 mm 1 m/S 762 mmHg 61%
08:00 +21°C° 0 mm 1 m/S 762 mmHg 54%
09:00 +23°C° 0 mm 2 m/S 762 mmHg 48%
10:00 +25°C° 0 mm 2 m/S 762 mmHg 42%
11:00 +25°C° 0 mm 2 m/S 762 mmHg 40%
12:00 +26°C° 0 mm 2 m/S 761 mmHg 38%
13:00 +27°C° 0 mm 2 m/S 761 mmHg 36%
14:00 +27°C° 0 mm 2 m/S 761 mmHg 36%
15:00 +27°C° 0 mm 2 m/S 761 mmHg 36%
16:00 +27°C° 0 mm 2 m/S 761 mmHg 36%
17:00 +26°C° 0 mm 2 m/S 761 mmHg 43%
18:00 +25°C° 0 mm 2 m/S 761 mmHg 50%
19:00 +23°C° 0 mm 2 m/S 761 mmHg 57%
20:00 +21°C° 0 mm 2 m/S 761 mmHg 60%
21:00 +20°C° 0 mm 1 m/S 761 mmHg 63%
22:00 +19°C° 0 mm 1 m/S 761 mmHg 66%
23:00 +18°C° 0 mm 1 m/S 761 mmHg 67%
Mehr zeigen

Wir brauchen deine Erlaubnis

Meteoprog und unser Service Anbieter werden persönliche Daten aufbewahren, so wie Cookies, Geräte Bezeichnung oder ähnliche Technologien von deinem Gerät und Prozess, so wie Persönliche Daten Inhalte und Werbungen, genauso wie social Media und den Verkehr zu analysieren.

  • Aufbewahrung und/oder Zugang zu deiner Geräte Informationen.

    Cookies, Geräte Bezeichnung oder andere Informationen, können aufbewahrt oder Zugang zu deinem Gerät erhalten, für den Grund, der oben angegeben wird.

  • Personalisierte Werbung und Inhalte, Messungen, Einblick in das Publikum und Produkt Entwicklung.

    Werbungen und Inhalte können personalisiert werden, basierend auf ein Profil. Mehr Daten können besser personalisierte Werbungen und Inhalte hinzufügen. Werbung und Inhalte können gezeigt und gemessen werden. Einblicke über das Publikum, welche die Werbung gesehen haben und den Inhalt, können abgeleitet werden. So wie Daten können genutzt werden, um es zu verbessern oder die Benutzer Erfahrung zu verbessern das System und die Software.

Wenn du “Ich stimme zu” klickst, erlaubst du uns, die Cookies zu benutzen die Geräte Bezeichnung, den Web oder ähnliche Technologien zu benutzen. Deine Settings, können in deinem Gerät bei deinem Browser geändert werden.

Für den bestimmten Zweck, berechtigten Interessen beruhen darauf, mehr als auf den Inhalt. Du kannst mehr darüber in unseren Privaten und Cookie Politik lesen.